Location: Pallagorio
(39.3000°N, 16.9000°E)
Time: 19:07:35
(UTC+00:00)

Cosmos 1898 Rocket - Pass Details

Date: 24 January 2021
Orbit: 754 x 783 km, 74.0° (Epoch: 03 March)

Event Time Altitude Azimuth Distance (km) Brightness Sun altitude
Rises 17:29:35 0° 203° (SSW) 3,238 7.2 -16.6°
Reaches altitude 10° 17:31:59 10° 206° (SSW) 2,311 6.5 -17.1°
Maximum altitude 17:37:12 70° 289° (WNW) 817 3.8 -18.1°
Drops below altitude 10° 17:42:26 10° 14° (NNE) 2,307 5.7 -19.1°
Enters shadow 17:43:12 - 15° (NNE) 2,601 6.0 -19.2°
